This is the latest recevied weather packets stored in our database for station/object KF0PEC-15. If no packets are shown the sender has not sent any weather packets the latest 10 day(s).
| Time | Temp. | Humidity | Pressure | Rain* | Wind** | Luminosity | Snow |
|---|---|---|---|---|---|---|---|
| 1777680570 | 11.67° C | 37% | 1019.1 hPa | 0 mm | - | 403 W/m² | - |
| 1777680005 | 12.22° C | 38% | 1018.9 hPa | 0 mm | - | 383 W/m² | - |
| 1777679440 | 12.22° C | 36% | 1018.8 hPa | 0 mm | - | 525 W/m² | - |
| 1777678905 | 11.67° C | 37% | 1018.9 hPa | 0 mm | - | 100 W/m² | - |
| 1777678425 | 11.67° C | 38% | 1018.8 hPa | 0 mm | - | 548 W/m² | - |
| 1777677930 | 11.67° C | 37% | 1018.8 hPa | 0 mm | - | 507 W/m² | - |
| 1777677335 | 12.22° C | 38% | 1018.3 hPa | 0 mm | - | 750 W/m² | - |
| 1777676810 | 12.78° C | 37% | 1017.9 hPa | 0 mm | - | 103 W/m² | - |
| 1777676310 | 13.33° C | 37% | 1017.5 hPa | 0 mm | - | 155 W/m² | - |
| 1777675800 | 13.33° C | 37% | 1017.2 hPa | 0 mm | - | 306 W/m² | - |
| 1777675285 | 12.78° C | 35% | 1017.6 hPa | 0 mm | - | 438 W/m² | - |
| 1777674797 | 12.78° C | 34% | 1017.8 hPa | 0 mm | - | 409 W/m² | - |
| 1777674281 | 12.78° C | 37% | 1017.9 hPa | 0 mm | - | 166 W/m² | - |
| 1777673780 | 12.78° C | 36% | 1017.9 hPa | 0 mm | - | 178 W/m² | - |
| 1777673215 | 13.33° C | 34% | 1017.7 hPa | 0 mm | - | 170 W/m² | - |
| 1777672720 | 13.89° C | 36% | 1017 hPa | 0 mm | - | 230 W/m² | - |
| 1777672170 | 13.89° C | 34% | 1017.3 hPa | 0 mm | - | 545 W/m² | - |
| 1777671600 | 12.78° C | 37% | 1018.2 hPa | 0 mm | - | 629 W/m² | - |
| 1777671115 | 12.22° C | 37% | 1018.8 hPa | 0 mm | - | 633 W/m² | - |
| 1777670590 | 12.22° C | 39% | 1018.8 hPa | 0 mm | - | 105 W/m² | - |
| 1777670037 | 12.22° C | 39% | 1019.2 hPa | 0 mm | - | 220 W/m² | - |
| 1777669510 | 11.11° C | 40% | 1020 hPa | 0 mm | - | 240 W/m² | - |
| 1777669006 | 11.11° C | 41% | 1020.1 hPa | 0 mm | - | 208 W/m² | - |
| 1777668500 | 11.11° C | 40% | 1020.3 hPa | 0 mm | - | 271 W/m² | - |
| 1777668000 | 11.67° C | 41% | 1020.1 hPa | 0 mm | - | 186 W/m² | - |
* Rain latest hour (hover to see other rain measurements)
** Current wind speed in m/s (hover to see current wind gust speed)